Location: W�rzburg
(49.7529°N, 9.8822°E)
Time: 13:02:29
(UTC+02:00)

ISS - Pass Details

Date: 11 February 2018
Orbit: 403 x 408 km, 51.6° (Epoch: 22 September)

Event Time Altitude Azimuth Distance (km) Brightness Sun altitude
Rises 19:27:41 0° 279° (W) 2,322 1.6 -19.1°
Reaches altitude 10° 19:31:08 10° 240° (WSW) 1,460 -0.2 -19.6°
Maximum altitude 19:32:00 11° 225° (SW) 1,410 -0.5 -19.8°
Drops below altitude 10° 19:32:53 10° 209° (SSW) 1,459 -0.7 -19.9°
Enters shadow 19:35:00 - 181° (S) 1,905 -0.4 -20.2°
